Mukilteo, WA

11:33 PM PDT on September 28, 2016 (GMT -0700)
Snohomish County

Weather History for KPAE - February, 2014

Change the Weather History Date:

Wednesday, February 26, 2014

  Actual Average Record
Temperature  
Mean Temperature 46 °F -  
Max Temperature 53 °F 51 °F 61 °F (1986)
Min Temperature 39 °F 35 °F 18 °F (1962)
Degree Days  
Heating Degree Days 19    
Moisture  
Dew Point 34 °F    
Average Humidity 67    
Maximum Humidity 86    
Minimum Humidity 52    
Precipitation  
Precipitation 0.00 in - - ()
Sea Level Pressure  
Sea Level Pressure 29.87 in    
Wind  
Wind Speed 4 mph (NNE)    
Max Wind Speed 7 mph    
Max Gust Speed -    
Visibility 10 miles    
Events      
Averages and records for this station are not official NWS values.
T = Trace of Precipitation, MM = Missing Value Source: NWS Daily Summary

Daily Weather History Graph

Daily Weather History Graph

Search for Another Location

Airport or City:

Trip Planner

Search our weather history database for the weather conditions in past years. The results will help you decide how hot, cold, wet, or windy it might be!

Date:

Astronomy

Feb. 26, 2014 Rise Set
Actual Time 6:55 AM PST 5:49 PM PST
Civil Twilight 6:24 AM PST 6:20 PM PST
Nautical Twilight 5:48 AM PST 6:56 PM PST
Astronomical Twilight 5:12 AM PST 7:32 PM PST
Moon 4:55 AM PST (2/26) 3:02 PM PST (2/26)
Length of Visible Light 11h 56m
Length of Day
10h 53m
Waning Crescent, 9% of the Moon is Illuminated
Feb 26
Waning Crescent
Mar 1
New
Mar 8
First Quarter
Mar 16
Full
Mar 23
Last Quarter

Hourly Weather History & Observations

Time (PST) Temp. Windchill Dew Point Humidity Pressure Visibility Wind Dir Wind Speed Gust Speed Precip Events Conditions
12:53 AM 43.0 °F 41.3 °F 28.9 °F 58% 30.00 in 10.0 mi ENE 3.5 mph - N/A   Clear
1:53 AM 39.9 °F 35.1 °F 30.9 °F 70% 30.00 in 10.0 mi ESE 6.9 mph - N/A   Clear
2:53 AM 42.1 °F 39.2 °F 28.0 °F 58% 29.98 in 10.0 mi East 4.6 mph - N/A   Clear
3:53 AM 42.1 °F 38.4 °F 28.0 °F 58% 29.96 in 10.0 mi ENE 5.8 mph - N/A   Clear
4:53 AM 39.9 °F 37.8 °F 30.9 °F 70% 29.95 in 10.0 mi Variable 3.5 mph - N/A   Clear
5:53 AM 41.0 °F 38.0 °F 30.9 °F 67% 29.94 in 10.0 mi ENE 4.6 mph - N/A   Clear
6:53 AM 39.0 °F 35.7 °F 32.0 °F 76% 29.92 in 10.0 mi NNE 4.6 mph - N/A   Clear
7:53 AM 39.0 °F 35.7 °F 35.1 °F 86% 29.92 in 10.0 mi NNE 4.6 mph - N/A   Clear
8:53 AM 39.9 °F 36.7 °F 35.1 °F 83% 29.92 in 10.0 mi North 4.6 mph - N/A   Clear
9:53 AM 44.1 °F 42.5 °F 35.1 °F 71% 29.90 in 10.0 mi NE 3.5 mph - N/A   Clear
10:53 AM 48.9 °F - 35.1 °F 59% 29.91 in 10.0 mi Variable 3.5 mph - N/A   Clear
11:53 AM 48.0 °F - 37.0 °F 66% 29.90 in 10.0 mi Variable 3.5 mph - N/A   Clear
12:53 PM 51.1 °F - 35.1 °F 54% 29.88 in 10.0 mi North 4.6 mph - N/A   Clear
1:53 PM 51.1 °F - 36.0 °F 56% 29.86 in 10.0 mi WNW 5.8 mph - N/A   Clear
2:53 PM 53.1 °F - 37.0 °F 55% 29.83 in 10.0 mi Variable 3.5 mph - N/A   Clear
3:53 PM 51.1 °F - 34.0 °F 52% 29.83 in 10.0 mi WSW 6.9 mph - N/A   Clear
4:53 PM 51.1 °F - 35.1 °F 54% 29.81 in 10.0 mi West 4.6 mph - N/A   Clear
5:53 PM 46.9 °F - 36.0 °F 66% 29.80 in 10.0 mi North 3.5 mph - N/A   Clear
6:53 PM 45.0 °F - 36.0 °F 71% 29.79 in 10.0 mi Calm Calm - N/A   Scattered Clouds
7:53 PM 43.0 °F 39.5 °F 36.0 °F 76% 29.78 in 10.0 mi North 5.8 mph - N/A   Mostly Cloudy
8:53 PM 43.0 °F 41.3 °F 36.0 °F 76% 29.78 in 10.0 mi North 3.5 mph - N/A   Overcast
9:53 PM 44.1 °F 42.5 °F 36.0 °F 73% 29.76 in 10.0 mi NNE 3.5 mph - N/A   Mostly Cloudy
10:53 PM 42.1 °F 37.7 °F 36.0 °F 79% 29.74 in 10.0 mi NNE 6.9 mph - N/A   Mostly Cloudy
11:53 PM 41.0 °F 38.0 °F 35.1 °F 79% 29.73 in 10.0 mi NNE 4.6 mph - N/A   Mostly Cloudy